This demonstration page uses our WeatherBlox Daily Observations layout. Learn more.

Left ArrowRight Arrow

Hourly Observations for October 11, 2016

Temp ( °F °C ) Dew Point ( °F °C ) Humidity (%) Winds ( mph kmh ) Pressure ( in mb ) Visibility ( mi km ) Precip ( " mm )
12:54 am 00:54 Clear 52 11.1 49 9.4 89 89 S 6 9 29.97 1015 10 16.0934 0 0
1:54 am 01:54 Clear 55 12.8 50 10 83 83 S 9 15 29.95 1014 10 16.0934 0 0
2:54 am 02:54 Clear 54 12.2 49 9.4 83 83 S 10 17 29.94 1014 10 16.0934 0 0
3:54 am 03:54 Clear 53 11.7 48 8.9 83 83 S 7 11 29.94 1014 10 16.0934 0 0
4:54 am 04:54 Clear 53 11.7 48 8.9 83 83 S 5 7 29.94 1014 10 16.0934 0 0
5:54 am 05:54 Clear 54 12.2 48 8.9 80 80 S 7 11 29.94 1014 10 16.0934 0 0
6:54 am 06:54 Clear 51 10.6 47 8.3 86 86 S 7 11 29.94 1014 10 16.0934 0 0
7:54 am 07:54 Sunny 51 10.6 47 8.3 86 86 Calm 29.96 1015 10 16.0934 0 0
8:54 am 08:54 Sunny 57 13.9 51 10.6 81 81 S 8 13 29.95 1014 10 16.0934 0 0
9:54 am 09:54 Sunny 63 17.2 50 10 63 63 S 14 22 29.96 1015 10 16.0934 0 0
10:54 am 10:54 Sunny 66 18.9 51 10.6 59 59 SSW 13 20 29.96 1015 10 16.0934 0 0
11:54 am 11:54 Sunny 69 20.6 53 11.7 57 57 SSW 7 11 29.95 1014 10 16.0934 0 0
12:54 pm 12:54 Sunny 71 21.7 54 12.2 55 55 S 7 11 29.93 1013 10 16.0934 0 0
1:54 pm 13:54 Sunny 71 21.7 54 12.2 55 55 Calm 29.91 1013 10 16.0934 0 0
2:54 pm 14:54 Sunny 72 22.2 54 12.2 53 53 VRB 3 6 29.9 1012 10 16.0934 0 0
3:54 pm 15:54 Sunny 73 22.8 55 12.8 53 53 Calm 29.88 1012 10 16.0934 0 0
4:54 pm 16:54 Mostly Sunny 65 18.3 54 12.2 68 68 NNW 17 28 29.91 1013 10 16.0934 0 0
5:54 pm 17:54 Sunny 59 15 51 10.6 75 75 N 13 20 29.91 1013 10 16.0934 0 0
6:54 pm 18:54 Partly Cloudy 56 13.3 49 9.4 77 77 N 14 22 29.96 1015 10 16.0934 0 0
7:18 pm 19:18 Cloudy 55 13 48 9 77 77 N 15 24 29.97 1015 10 16.0934 0 0
7:45 pm 19:45 Cloudy 55 12.8 48 8.9 77 77 N 14 22 29.97 1015 10 16.0934 0 0
7:54 pm 19:54 Cloudy 55 12.8 48 8.9 77 77 NNE 12 19 29.98 1015 10 16.0934 0 0
8:54 pm 20:54 Cloudy 53 11.7 47 8.3 80 80 N 14 22 29.99 1016 10 16.0934 0 0
9:16 pm 21:16 Cloudy 54 12 46 8 77 77 N 18 30 30 1016 10 16.0934 0 0
9:54 pm 21:54 Cloudy 52 11.1 46 7.8 80 80 N 14 22 30.01 1016 10 16.0934 0 0
10:54 pm 22:54 Cloudy 52 11.1 45 7.2 77 77 N 17 28 30.05 1018 10 16.0934 0 0
11:54 pm 23:54 Cloudy 50 10 42 5.6 74 74 N 24 39 30.06 1018 10 16.0934 0 0

Powered by AerisWeather